Theta_e
346 347 344 341 338 342 339 338 341 350 348 345 358 356 355 352 351 351 350 347 345 345 341 338 338 338 338 339 343 343 346 346 342 345 341 338 343 349 352 352 352 351 350 347
345 346 343 340 340 343 341 335 335 351 347 350 353 358 355 353 352 350 350 349 348 345 341 338 337 340 340 340 343 341 346 346 343 346 344 345 349 350 350 352 353 353 351 349
333 334 335 344 339 334 326 331 331 346 353 356 357 360 358 354 352 350 349 347 347 346 343 338 336 337 339 339 343 341 338 346 346 346 343 345 349 350 349 353 353 352 351 351
332 331 333 329 331 325 325 325 330 357 359 365 353 366 350 356 355 353 350 348 347 346 342 337 340 340 340 338 339 342 339 339 346 346 345 347 350 351 349 349 353 352 351 352
331 331 328 329 330 326 324 326 326 355 346 351 350 355 348 347 356 355 352 350 348 348 343 338 338 340 340 339 339 338 338 336 337 344 344 346 349 347 349 351 352 353 351 351
328 326 326 326 325 327 326 325 320 320 331 344 349 346 349 345 350 354 352 351 350 349 349 343 339 338 339 340 340 339 339 339 330 335 342 344 347 350 353 353 353 350 349 338
324 326 326 328 325 322 325 318 321 325 329 335 343 344 346 346 345 350 351 350 347 350 350 349 346 345 344 343 342 342 342 340 331 329 336 342 346 348 353 353 353 346 346 341
327 329 329 328 323 324 325 320 321 332 332 345 341 354 349 345 347 345 352 345 345 344 346 348 348 347 347 346 343 342 341 335 331 329 336 342 345 350 352 353 354 350 348 347
326 329 331 326 325 325 326 325 324 326 338 345 346 349 344 347 346 348 347 345 345 347 346 345 345 347 348 348 344 343 340 340 337 337 342 344 343 348 348 348 351 353 352 351
327 330 327 331 329 330 328 324 324 324 348 352 348 346 350 347 347 348 346 345 346 349 350 349 346 342 344 346 345 342 340 340 340 342 343 343 344 348 349 352 352 352 353 354
322 321 324 331 331 330 330 328 323 319 330 347 351 344 340 347 348 345 346 343 344 346 348 345 342 340 343 344 342 341 340 342 343 344 346 347 347 348 354 355 355 356 356 356
324 318 326 331 331 330 329 332 319 318 330 338 345 346 341 345 344 347 344 340 341 342 341 340 339 342 347 343 342 340 340 341 345 346 349 350 350 351 352 352 353 355 354 351
328 324 326 327 327 327 332 333 324 318 326 332 342 347 338 341 344 345 346 344 340 340 340 338 339 346 347 344 343 344 343 345 346 347 349 351 352 353 353 353 355 356 355 355
330 320 323 326 328 327 331 332 326 324 330 333 337 344 342 341 345 344 345 344 345 345 344 346 347 348 350 348 352 354 355 353 354 354 354 354 354 354 354 354 354 354 352 350
324 326 324 323 329 331 330 330 327 326 323 325 336 342 341 340 342 342 342 342 344 344 349 351 351 352 355 355 356 358 359 357 357 359 359 358 354 354 354 353 354 357 358 358
322 326 329 327 327 327 327 326 328 326 327 337 338 338 335 337 341 343 342 342 348 346 351 353 354 355 355 356 358 358 357 356 356 354 354 354 355 355 355 354 353 354 356 356
326 323 321 325 325 330 329 329 330 330 328 337 337 334 337 340 342 342 340 344 348 348 352 355 355 353 353 357 357 355 353 352 350 347 345 345 346 346 345 346 348 349 351 351
324 324 324 326 327 331 327 328 329 328 329 327 335 337 339 339 339 340 338 344 346 349 353 353 353 352 352 354 351 348 346 344 341 338 337 337 337 337 337 338 339 341 340 342
324 323 326 327 329 329 330 330 331 329 329 328 337 337 339 339 340 339 340 342 343 351 351 350 349 350 349 346 345 341 339 338 336 336 335 335 334 332 330 333 332 330 329 330
324 323 327 325 331 331 328 330 329 325 328 331 332 338 341 341 346 345 339 340 348 348 347 345 343 343 342 340 339 337 336 334 334 334 334 334 332 332 334 331 329 330 332 333
327 327 331 329 330 330 328 329 327 329 328 331 332 338 341 343 348 350 341 346 345 345 343 342 340 339 339 338 337 336 334 334 333 331 332 332 332 333 331 329 330 332 333 326
328 329 330 333 333 334 330 332 332 326 327 330 337 340 341 351 353 350 345 343 341 339 339 339 339 339 339 338 337 335 334 333 331 332 333 332 333 332 332 331 330 328 326 325
334 332 331 330 333 331 330 330 331 328 328 332 340 344 350 354 352 344 343 341 338 337 336 336 336 336 338 337 336 334 333 331 333 333 333 333 333 334 332 331 329 326 326 325
331 329 335 333 333 333 334 334 332 331 331 329 342 349 352 352 346 342 340 338 336 335 335 334 334 334 333 333 333 332 332 333 333 330 328 328 328 328 327 328 329 325 326 325
329 330 329 332 327 329 330 333 332 331 332 331 345 351 351 346 342 340 339 337 336 335 335 334 333 333 333 332 332 333 333 332 330 327 327 326 326 325 325 326 326 326 325 325
325 327 326 326 325 326 328 330 329 330 332 332 342 347 345 342 340 339 337 336 335 335 335 334 334 333 332 332 332 332 331 329 327 327 326 325 325 325 325 325 326 326 326 327
Wind_Speed
9 4 10 18 13 12 4 10 7 4 8 7 7 17 15 15 13 14 12 10 8 12 14 24 27 29 31 27 20 26 25 23 21 18 14 14 13 10 7 13 14 10 8 9
2 12 20 14 13 10 11 16 7 3 2 6 5 9 14 15 16 17 16 12 12 9 11 20 22 26 31 32 25 22 17 18 24 19 15 14 14 10 10 11 17 15 11 8
9 17 14 12 14 1 7 7 6 10 4 9 11 4 5 5 10 13 15 15 13 13 12 10 19 26 29 30 32 28 20 18 19 19 15 14 12 14 13 7 13 15 14 11
8 9 12 12 11 6 3 6 6 19 13 7 4 4 6 10 9 15 15 14 15 12 15 13 19 21 26 33 33 35 26 20 21 18 17 16 16 15 15 14 8 12 15 14
11 10 10 7 9 4 8 3 4 20 7 7 3 5 2 8 7 12 16 18 18 18 18 17 20 27 31 33 33 33 32 26 25 21 20 20 18 19 16 14 11 7 11 8
10 7 4 7 7 0 2 5 8 5 5 2 5 4 4 2 7 13 15 18 19 18 18 18 26 25 25 28 32 33 32 29 30 27 22 24 24 19 18 17 11 8 12 2
8 13 8 7 5 7 6 7 3 3 3 3 4 7 6 7 9 3 6 4 4 15 17 17 17 22 25 27 30 33 33 34 34 34 32 30 28 27 22 17 15 14 14 9
1 10 5 5 9 9 4 8 6 3 2 1 8 3 5 7 8 5 11 9 8 5 1 11 18 27 28 29 31 33 33 38 37 38 39 36 32 31 30 23 17 18 17 17
6 7 4 5 8 8 3 2 5 7 3 5 2 1 6 7 6 8 11 5 5 7 7 4 7 17 24 31 34 38 36 38 41 43 41 38 36 34 31 29 27 22 18 18
6 4 4 5 5 3 1 2 5 4 4 1 1 2 5 8 7 6 9 5 4 10 7 1 3 14 21 30 36 35 38 40 41 38 37 37 37 36 32 27 27 25 26 24
7 3 8 4 2 4 5 5 3 4 5 5 3 6 7 9 10 7 5 6 7 11 7 5 12 29 31 33 30 35 31 36 36 34 33 32 34 34 31 28 27 27 23 21
7 5 2 4 4 2 6 4 5 5 2 3 5 5 7 8 5 4 6 6 6 6 7 3 15 36 34 37 29 29 30 33 38 36 30 34 34 30 28 29 28 27 26 26
2 2 3 8 8 9 4 3 4 4 3 2 6 5 3 3 7 6 5 7 5 4 4 6 14 15 11 23 23 24 29 29 31 31 32 31 30 28 27 26 24 23 22 23
9 4 7 6 7 5 4 3 2 7 4 4 5 5 6 11 16 11 10 7 4 6 7 7 11 6 19 20 19 19 19 21 20 18 20 23 24 24 24 22 20 19 19 23
5 1 5 6 8 4 6 4 3 3 6 6 8 11 20 22 24 18 17 10 7 5 6 9 5 9 18 23 26 24 22 20 18 18 16 9 4 9 8 7 6 7 3 3
4 3 2 3 6 2 5 8 7 3 3 9 12 5 6 9 8 7 14 14 9 6 9 12 11 10 17 21 24 25 24 21 19 18 17 16 16 12 10 8 6 5 5 4
2 3 3 6 4 5 4 5 4 4 2 11 7 11 8 6 11 13 10 13 11 7 7 13 13 15 19 24 25 23 21 18 17 16 15 14 12 12 12 11 10 11 11 8
5 3 3 3 3 2 8 4 4 6 2 4 6 12 21 20 20 5 5 8 8 6 9 12 14 18 23 27 25 22 18 16 15 13 12 11 11 10 10 10 11 9 10 11
4 4 2 2 3 6 7 2 4 4 3 6 8 8 18 7 5 3 6 7 8 9 9 15 22 28 28 27 23 20 16 14 12 11 10 10 10 10 10 10 11 11 12 12
7 6 4 4 4 7 9 5 4 5 2 4 11 14 16 10 5 7 14 8 12 17 23 25 27 30 29 23 19 17 13 11 10 8 7 6 7 7 8 9 10 10 12 13
4 5 3 2 4 7 9 6 4 7 8 6 15 19 19 15 6 7 16 14 21 23 26 27 26 26 26 22 18 16 11 9 6 4 4 4 5 5 7 9 11 11 12 17
4 4 3 1 2 5 4 1 5 7 5 4 17 20 20 9 15 18 20 21 19 20 23 26 25 26 23 20 17 14 10 6 5 5 4 3 3 4 4 8 11 15 14 16
2 3 4 4 2 9 10 6 4 4 2 3 13 18 21 25 22 22 19 19 17 22 24 27 30 28 22 18 15 13 9 6 6 4 3 2 2 4 8 7 9 12 14 14
7 5 4 3 10 11 15 16 9 9 3 7 9 24 27 23 24 21 18 18 17 25 25 28 30 25 20 15 12 11 9 7 7 12 17 18 17 14 13 14 12 13 11 11
3 5 6 5 8 14 17 18 18 21 6 12 1 27 25 27 23 25 19 17 20 25 26 29 27 26 21 19 15 13 10 8 11 13 13 12 12 12 10 9 9 8 9 10
1 3 1 4 2 4 8 13 19 21 20 11 6 9 21 26 25 21 20 23 26 24 24 22 26 29 25 23 19 15 9 11 13 12 12 12 11 10 10 10 10 8 10 8
Wind_Direction
208 196 233 240 206 213 199 239 205 234 209 101 125 128 158 164 168 163 177 181 190 194 176 184 183 187 196 194 182 181 187 205 195 182 195 212 213 224 222 224 226 223 249 223
26 234 250 248 259 242 228 222 200 183 131 89 92 125 154 172 176 170 174 186 193 201 179 180 182 182 191 196 194 190 179 177 187 194 194 195 217 225 245 237 239 238 236 230
174 253 276 248 272 309 318 135 177 161 171 91 129 64 175 202 160 170 178 187 195 195 187 178 180 187 192 196 198 204 189 177 186 197 204 209 229 249 252 258 235 241 236 247
247 265 233 273 267 134 298 168 129 132 131 164 187 191 233 176 181 177 186 189 191 180 184 177 185 189 193 204 208 210 206 196 200 204 209 213 218 235 243 249 262 232 224 243
258 293 314 306 260 205 217 234 118 161 113 126 229 99 241 130 200 196 186 195 195 189 179 188 188 193 200 205 211 217 223 220 215 216 226 225 227 243 249 255 252 203 218 231
253 294 222 238 296 257 333 2 35 71 128 121 206 102 16 328 224 201 194 197 195 195 189 190 195 192 199 205 210 220 223 225 223 223 228 227 230 234 243 250 241 219 186 202
314 274 275 198 274 344 77 61 319 342 28 209 151 66 224 301 310 130 162 103 330 199 193 192 193 195 199 197 205 215 221 221 223 224 228 228 229 228 231 235 225 184 197 188
231 315 211 237 195 199 192 151 154 226 143 84 36 131 250 166 289 229 136 130 114 74 71 214 192 196 198 201 203 206 214 217 218 219 226 229 229 229 230 230 221 217 231 238
178 257 296 199 196 127 270 247 191 103 61 101 160 328 305 327 264 247 105 133 122 97 79 32 2 228 208 204 204 209 208 217 219 220 224 226 229 229 232 235 237 237 237 239
233 260 306 311 75 31 168 223 14 26 138 102 349 214 217 244 251 292 129 160 160 136 128 209 307 306 255 222 207 208 208 214 222 223 224 229 232 233 234 238 242 241 240 246
178 202 293 21 33 146 10 352 39 114 124 150 116 260 216 220 224 231 62 242 188 135 137 232 299 289 272 224 211 207 203 215 222 224 227 225 230 234 233 235 244 248 244 242
205 133 92 197 219 118 170 204 139 112 311 48 117 253 236 237 298 308 327 307 8 96 96 331 291 291 250 207 203 201 202 212 220 225 221 230 235 237 236 240 243 246 251 251
189 47 38 352 353 348 33 24 86 95 88 188 130 245 209 266 257 249 246 297 333 16 301 270 283 264 163 191 192 190 199 210 217 220 224 230 235 238 241 244 245 248 255 261
84 111 152 180 204 181 301 300 107 116 104 182 196 189 200 221 228 224 211 205 197 230 248 232 241 78 76 106 137 162 184 198 200 207 217 227 234 237 244 253 255 259 264 259
97 256 181 212 208 238 285 271 291 157 172 151 189 176 210 200 218 202 198 187 178 236 154 184 89 74 86 89 100 106 109 123 130 110 98 96 179 215 224 237 241 225 266 337
32 266 158 288 238 185 243 283 320 282 55 74 140 241 235 201 185 197 214 184 163 181 181 114 107 110 99 102 99 101 105 105 107 100 95 92 95 96 88 85 75 53 36 32
82 116 60 267 331 359 10 224 147 159 135 138 160 213 147 182 206 212 181 168 172 152 159 137 130 124 117 111 112 107 106 107 99 92 85 83 79 75 69 67 64 55 48 37
136 125 121 235 28 132 238 329 86 107 115 150 96 154 175 190 205 180 116 138 161 159 153 131 130 120 114 116 113 112 108 99 91 79 69 61 58 48 34 30 33 27 23 22
121 123 73 121 181 273 311 214 128 121 301 153 153 175 180 113 78 302 146 156 176 151 141 137 133 126 124 121 119 111 102 93 83 69 54 40 30 25 26 31 20 5 355 355
26 97 127 97 191 214 238 235 211 95 240 245 157 176 154 133 153 231 156 163 120 128 138 131 127 127 124 124 124 119 109 98 80 64 56 47 32 46 51 25 17 25 28 25
0 355 177 208 213 278 251 230 124 114 232 225 164 160 158 174 196 165 146 138 134 139 135 131 128 130 133 135 134 122 118 99 85 73 74 54 52 72 47 40 29 22 54 75
175 196 242 82 172 278 289 222 142 217 272 220 151 159 165 139 133 128 134 136 138 133 131 128 123 132 140 144 138 131 119 112 109 106 109 95 78 62 19 19 62 80 62 53
100 131 241 133 267 286 292 344 245 154 230 162 160 160 149 145 147 143 139 135 140 137 132 129 127 130 137 146 148 135 129 123 116 99 46 3 7 47 63 64 108 77 57 52
341 10 14 57 337 337 9 8 349 303 104 30 170 155 151 150 147 144 142 145 146 146 141 138 135 135 138 140 136 128 129 128 120 102 88 97 96 91 79 76 102 86 56 51
254 359 326 309 341 339 359 360 351 346 353 61 329 152 155 150 156 150 151 151 151 150 147 146 144 145 142 143 139 140 139 140 114 112 102 91 86 77 76 85 98 97 59 40
205 228 142 253 260 232 302 326 349 353 342 9 147 187 161 156 156 155 154 153 152 150 147 144 145 145 147 145 139 139 138 140 123 120 104 84 84 76 67 76 110 92 49 24